Jackson, MI

1:33 AM EDT on June 19, 2019 (GMT -0400)
Jackson County-Reynolds

Weather History for KJXN - May, 2019

Change the Weather History Date:

Thursday, May 23, 2019

  Actual Average Record
Temperature  
Mean Temperature 65 °F 60 °F  
Max Temperature 75 °F 71 °F 90 °F (1977)
Min Temperature 55 °F 48 °F 29 °F (1963)
Degree Days  
Heating Degree Days 0 7  
Month to date heating degree days 225 215  
Since 1 July heating degree days 6622 6561  
Cooling Degree Days 0 1  
Month to date cooling degree days 1 16  
Year to date cooling degree days 1 22  
Growing Degree Days 16 (Base 50)    
Moisture  
Dew Point 58 °F    
Average Humidity 63    
Maximum Humidity 93    
Minimum Humidity 33    
Precipitation  
Precipitation 0.35 in 0.12 in 0.94 in (1973)
Month to date precipitation 2.70 2.43  
Year to date precipitation 10.94 9.72  
Sea Level Pressure  
Sea Level Pressure 29.95 in    
Wind  
Wind Speed 14 mph (SW)    
Max Wind Speed 33 mph    
Max Gust Speed 55 mph    
Visibility 9 miles    
Events Rain , Thunderstorm    
T = Trace of Precipitation, MM = Missing Value Source: NWS Daily Summary

Daily Weather History Graph

Daily Weather History Graph

Search for Another Location

Airport or City:

Astronomy

May. 23, 2019 Rise Set
Actual Time 6:09 AM EDT 8:59 PM EDT
Civil Twilight 5:36 AM EDT 9:33 PM EDT
Nautical Twilight 4:55 AM EDT 10:14 PM EDT
Astronomical Twilight 4:07 AM EDT 11:03 PM EDT
Moon 12:42 AM EDT (5/23) 10:11 AM EDT (5/23)
Length of Visible Light 15h 56m
Length of Day
14h 50m
Waning Gibbous, 77% of the Moon is Illuminated
May 23
Waning Gibbous
May 26
Last Quarter
Jun 3
New
Jun 10
First Quarter
Jun 17
Full

Hourly Weather History & Observations

Time (EDT) Temp. Dew Point Humidity Pressure Visibility Wind Dir Wind Speed Gust Speed Precip Events Conditions
12:56 AM 66.9 °F 62.1 °F 84% 29.96 in 10.0 mi South 10.4 mph - N/A   Clear
1:56 AM 66.9 °F 63.0 °F 87% 29.95 in 10.0 mi South 11.5 mph 20.7 mph N/A   Mostly Cloudy
2:56 AM 66.9 °F 63.0 °F 87% 29.93 in 10.0 mi SSW 10.4 mph - N/A   Clear
3:56 AM 66.9 °F 63.0 °F 87% 29.91 in 10.0 mi South 9.2 mph - N/A   Clear
4:56 AM 68.0 °F 64.0 °F 87% 29.90 in 10.0 mi South 11.5 mph - N/A   Partly Cloudy
5:11 AM 69.1 °F 64.9 °F 87% 29.91 in 10.0 mi South 11.5 mph - N/A Thunderstorm Thunderstorm
5:56 AM 68.0 °F 66.0 °F 93% 29.93 in 1.5 mi SW 21.9 mph 41.4 mph 0.20 in Thunderstorm Thunderstorm
6:04 AM 68.0 °F 66.9 °F 96% 29.95 in 1.8 mi SW 24.2 mph 55.2 mph 0.03 in Thunderstorm Thunderstorm
6:07 AM 68.0 °F 66.0 °F 93% 29.95 in 3.0 mi SW 29.9 mph 55.2 mph 0.04 in Thunderstorm Thunderstorm
6:56 AM 64.9 °F 64.9 °F 100% 29.88 in 10.0 mi SE 11.5 mph - 0.15 in Rain Light Rain
7:56 AM 64.9 °F 64.9 °F 100% 29.92 in 10.0 mi SSW 13.8 mph - 0.00 in   Overcast
8:37 AM 66.9 °F 64.0 °F 90% 29.92 in 10.0 mi SSW 18.4 mph 29.9 mph N/A   Mostly Cloudy
8:56 AM 66.9 °F 64.0 °F 90% 29.91 in 10.0 mi SW 20.7 mph 34.5 mph N/A   Overcast
9:56 AM 66.9 °F 64.9 °F 93% 29.91 in 10.0 mi SSW 15.0 mph 25.3 mph N/A   Overcast
10:56 AM 69.1 °F 64.9 °F 87% 29.92 in 10.0 mi WSW 13.8 mph 26.5 mph N/A   Overcast
11:42 AM 71.1 °F 59.0 °F 66% 29.95 in 10.0 mi SW 19.6 mph 34.5 mph N/A   Mostly Cloudy
11:56 AM 72.0 °F 57.9 °F 61% 29.94 in 10.0 mi WSW 21.9 mph 33.4 mph N/A   Scattered Clouds
12:56 PM 73.0 °F 57.0 °F 57% 29.94 in 10.0 mi SW 18.4 mph 32.2 mph N/A   Clear
1:56 PM 73.9 °F 54.0 °F 50% 29.94 in 10.0 mi WSW 20.7 mph 29.9 mph N/A   Clear
2:56 PM 75.0 °F 50.0 °F 41% 29.94 in 10.0 mi WSW 20.7 mph 36.8 mph N/A   Clear
3:56 PM 75.0 °F 44.1 °F 33% 29.96 in 10.0 mi WSW 24.2 mph 36.8 mph N/A   Clear
4:56 PM 73.9 °F 45.0 °F 35% 29.95 in 10.0 mi WSW 21.9 mph 34.5 mph N/A   Clear
5:56 PM 73.0 °F 45.0 °F 37% 29.96 in 10.0 mi West 18.4 mph 38.0 mph N/A   Clear
6:56 PM 72.0 °F 46.9 °F 41% 29.99 in 10.0 mi WSW 17.3 mph 27.6 mph N/A   Clear
7:56 PM 70.0 °F 48.0 °F 46% 30.01 in 10.0 mi West 9.2 mph 23.0 mph N/A   Clear
8:56 PM 64.9 °F 48.9 °F 56% 30.03 in 10.0 mi West 4.6 mph - N/A   Clear
9:56 PM 62.1 °F 50.0 °F 65% 30.05 in 10.0 mi West 3.5 mph - N/A   Clear
10:56 PM 57.9 °F 50.0 °F 75% 30.08 in 10.0 mi WSW 3.5 mph - N/A   Clear
11:56 PM 57.9 °F 50.0 °F 75% 30.09 in 10.0 mi WSW 3.5 mph - N/A   Clear